Simultaneous Nadir Overpasses (SNOs) Predictions

Prediction of SNOs between GOES-16 and METOP-C Satellite Orbit:

Table of predicted SNOs for the next 14.0 days since TLE Epoch: 4/20/2024
Index Date Time (GOES-16) GOES-16 Lat,Lon METOP-C Lat,Lon Distance(km) Time Diff (sec)
1 04/20/2024 14:23:06 0.03, -75.21 -0.40, -73.13 235.58 80
2 04/22/2024 02:42:07 -0.03, -75.20 -0.61, -77.73 288.46 80
3 04/23/2024 02:18:49 -0.03, -75.21 0.50, -72.74 280.99 80
4 04/24/2024 14:37:43 0.03, -75.22 0.47, -77.31 237.21 80
5 04/25/2024 14:19:44 0.03, -75.23 -0.65, -72.32 332.47 80
6 04/27/2024 02:38:45 -0.02, -75.23 -0.39, -76.90 191.06 80
7 04/28/2024 02:15:26 -0.02, -75.23 0.74, -71.91 378.56 80
8 04/29/2024 14:34:19 0.01, -75.25 0.26, -76.48 139.39 80
9 04/30/2024 14:16:20 0.01, -75.26 -0.83, -71.48 430.62 80
10 05/02/2024 02:35:20 -0.00, -75.26 -0.19, -76.07 91.99 80
11 05/03/2024 02:12:02 -0.00, -75.28 0.96, -71.08 478.48 80
